Time,TemperatureF,DewpointF,PressureIn,WindDirection,WindDirectionDegrees,WindSpeedMPH,WindSpeedGustMPH,Humidity,HourlyPrecipIn,Conditions,Clouds,dailyrainin,SoftwareType,DateUTC
2013-04-21 00:02:00,40.0,31.0,-100.00,ESE,105,16.0,18.0,68,0.21,,,-99.99,,2013-04-21 05:02:00,
2013-04-21 00:12:00,40.0,31.0,-100.00,ESE,110,16.0,20.0,68,0.17,,,-99.99,,2013-04-21 05:12:00,
2013-04-21 00:22:00,40.0,30.0,-100.00,ESE,115,15.0,20.0,69,0.00,,,-99.99,,2013-04-21 05:22:00,
2013-04-21 00:32:00,39.0,30.0,-100.00,ESE,120,13.0,16.0,69,0.00,,,-99.99,,2013-04-21 05:32:00,
2013-04-21 00:42:00,39.0,30.0,-100.00,ESE,120,13.0,16.0,69,0.00,,,-99.99,,2013-04-21 05:42:00,
2013-04-21 00:52:00,39.0,30.0,-100.00,SE,125,13.0,17.0,69,0.00,,,-99.99,,2013-04-21 05:52:00,
2013-04-21 01:01:00,39.0,30.0,-100.00,SE,125,13.0,17.0,69,0.00,,,-99.99,,2013-04-21 06:01:00,
2013-04-21 01:12:00,40.0,30.0,-100.00,ESE,110,13.0,15.0,68,0.00,,,-99.99,,2013-04-21 06:12:00,
2013-04-21 01:21:00,40.0,30.0,-100.00,ESE,120,11.0,15.0,68,0.00,,,-99.99,,2013-04-21 06:21:00,
2013-04-21 01:32:00,39.0,30.0,-100.00,East,100,13.0,16.0,70,0.00,,,-99.99,,2013-04-21 06:32:00,
2013-04-21 01:42:00,39.0,30.0,-100.00,East,100,13.0,16.0,70,0.00,,,-99.99,,2013-04-21 06:42:00,
2013-04-21 01:51:00,39.0,30.0,-100.00,ESE,110,7.0,12.0,70,0.00,,,-99.99,,2013-04-21 06:51:00,
2013-04-21 02:01:00,39.0,30.0,-100.00,ESE,110,7.0,12.0,70,0.00,,,-99.99,,2013-04-21 07:01:00,
2013-04-21 02:11:00,38.0,30.0,-100.00,East,100,4.0,9.0,71,0.00,,,-99.99,,2013-04-21 07:11:00,
2013-04-21 02:21:00,38.0,30.0,-100.00,East,95,9.0,11.0,72,0.00,,,-99.99,,2013-04-21 07:21:00,
2013-04-21 02:31:00,38.0,31.0,-100.00,ESE,110,7.0,11.0,73,0.00,,,-99.99,,2013-04-21 07:31:00,
2013-04-21 02:41:00,38.0,31.0,-100.00,ESE,110,7.0,11.0,73,0.00,,,-99.99,,2013-04-21 07:41:00,
2013-04-21 02:52:00,38.0,31.0,-100.00,ESE,120,6.0,9.0,75,0.00,,,-99.99,,2013-04-21 07:52:00,
2013-04-21 03:01:00,38.0,31.0,-100.00,ESE,120,6.0,9.0,75,0.00,,,-99.99,,2013-04-21 08:01:00,
2013-04-21 03:12:00,38.0,31.0,-100.00,ESE,110,8.0,10.0,75,0.00,,,-99.99,,2013-04-21 08:12:00,
2013-04-21 03:21:00,38.0,31.0,-100.00,ESE,110,7.0,9.0,76,0.00,,,-99.99,,2013-04-21 08:21:00,
2013-04-21 03:32:00,38.0,32.0,-100.00,ESE,105,7.0,9.0,77,0.00,,,-99.99,,2013-04-21 08:32:00,
2013-04-21 03:41:00,38.0,32.0,-100.00,ESE,105,7.0,9.0,77,0.00,,,-99.99,,2013-04-21 08:41:00,
2013-04-21 03:52:00,38.0,32.0,-100.00,East,100,13.0,15.0,79,0.24,,,-99.99,,2013-04-21 08:52:00,
2013-04-21 04:01:00,38.0,32.0,-100.00,East,100,13.0,15.0,79,0.24,,,-99.99,,2013-04-21 09:01:00,
2013-04-21 04:11:00,38.0,32.0,-100.00,ESE,105,15.0,18.0,79,0.23,,,-99.99,,2013-04-21 09:11:00,
2013-04-21 04:21:00,38.0,32.0,-100.00,ESE,110,17.0,21.0,79,0.17,,,-99.99,,2013-04-21 09:21:00,
2013-04-21 04:32:00,37.0,33.0,-100.00,ESE,115,14.0,18.0,84,0.16,,,-99.99,,2013-04-21 09:32:00,
2013-04-21 04:43:00,37.0,33.0,-100.00,ESE,115,14.0,18.0,84,0.16,,,-99.99,,2013-04-21 09:43:00,
2013-04-21 04:52:00,37.0,34.0,-100.00,ESE,110,15.0,19.0,86,0.24,,,-99.99,,2013-04-21 09:52:00,
2013-04-21 05:02:00,37.0,34.0,-100.00,ESE,110,15.0,19.0,86,0.24,,,-99.99,,2013-04-21 10:02:00,
2013-04-21 05:12:00,37.0,34.0,-100.00,ESE,110,16.0,19.0,86,0.00,,,-99.99,,2013-04-21 10:12:00,
2013-04-21 05:22:00,37.0,34.0,-100.00,ESE,110,17.0,21.0,86,0.00,,,-99.99,,2013-04-21 10:22:00,
2013-04-21 05:32:00,37.0,33.0,-100.00,ESE,110,18.0,22.0,85,0.00,,,-99.99,,2013-04-21 10:32:00,
2013-04-21 05:42:00,37.0,33.0,-100.00,ESE,110,18.0,22.0,85,0.00,,,-99.99,,2013-04-21 10:42:00,
2013-04-21 05:52:00,37.0,33.0,-100.00,ESE,115,19.0,26.0,85,0.00,,,-99.99,,2013-04-21 10:52:00,
2013-04-21 06:02:00,37.0,33.0,-100.00,ESE,115,19.0,26.0,85,0.00,,,-99.99,,2013-04-21 11:02:00,
2013-04-21 06:12:00,37.0,33.0,-100.00,ESE,110,17.0,22.0,85,0.00,,,-99.99,,2013-04-21 11:12:00,
2013-04-21 06:22:00,37.0,33.0,-100.00,ESE,110,17.0,23.0,85,0.00,,,-99.99,,2013-04-21 11:22:00,
2013-04-21 06:34:00,37.0,34.0,-100.00,ESE,115,16.0,20.0,85,0.00,,,-99.99,,2013-04-21 11:34:00,
2013-04-21 06:42:00,37.0,34.0,-100.00,ESE,115,16.0,20.0,85,0.00,,,-99.99,,2013-04-21 11:42:00,
2013-04-21 06:52:00,38.0,34.0,-100.00,ESE,115,22.0,27.0,83,0.00,,,-99.99,,2013-04-21 11:52:00,
2013-04-21 07:02:00,38.0,34.0,-100.00,ESE,115,22.0,27.0,83,0.00,,,-99.99,,2013-04-21 12:02:00,
2013-04-21 07:12:00,39.0,34.0,-100.00,SE,125,21.0,26.0,83,0.00,,,-99.99,,2013-04-21 12:12:00,
2013-04-21 07:22:00,39.0,34.0,-100.00,SE,130,20.0,28.0,83,0.00,,,-99.99,,2013-04-21 12:22:00,
2013-04-21 07:32:00,39.0,34.0,-100.00,ESE,105,1.0,11.0,82,0.00,,,-99.99,,2013-04-21 12:32:00,
2013-04-21 07:42:00,39.0,34.0,-100.00,ESE,105,1.0,11.0,82,0.00,,,-99.99,,2013-04-21 12:42:00,
2013-04-21 07:52:00,39.0,34.0,-100.00,ESE,115,15.0,21.0,82,0.00,,,-99.99,,2013-04-21 12:52:00,
2013-04-21 08:01:00,39.0,34.0,-100.00,ESE,115,15.0,21.0,82,0.00,,,-99.99,,2013-04-21 13:01:00,
2013-04-21 08:11:00,39.0,35.0,-100.00,ESE,120,20.0,24.0,83,0.00,,,-99.99,,2013-04-21 13:11:00,
2013-04-21 08:21:00,39.0,35.0,-100.00,SE,135,19.0,27.0,85,0.00,,,-99.99,,2013-04-21 13:21:00,
2013-04-21 08:32:00,39.0,36.0,-100.00,SE,130,22.0,29.0,86,0.00,,,-99.99,,2013-04-21 13:32:00,
2013-04-21 08:42:00,39.0,36.0,-100.00,SE,130,22.0,29.0,86,0.00,,,-99.99,,2013-04-21 13:42:00,
2013-04-21 08:52:00,40.0,36.0,-100.00,SE,130,24.0,29.0,86,0.00,,,-99.99,,2013-04-21 13:52:00,
2013-04-21 09:02:00,40.0,36.0,-100.00,SE,130,24.0,29.0,86,0.00,,,-99.99,,2013-04-21 14:02:00,
2013-04-21 09:11:00,40.0,36.0,-100.00,SE,130,21.0,27.0,86,0.00,,,-99.99,,2013-04-21 14:11:00,
2013-04-21 09:21:00,40.0,36.0,-100.00,SE,130,11.0,24.0,86,0.00,,,-99.99,,2013-04-21 14:21:00,
2013-04-21 09:32:00,40.0,36.0,-100.00,SE,125,14.0,17.0,84,0.00,,,-99.99,,2013-04-21 14:32:00,
2013-04-21 09:42:00,40.0,36.0,-100.00,SE,125,14.0,17.0,84,0.00,,,-99.99,,2013-04-21 14:42:00,
2013-04-21 09:52:00,41.0,36.0,-100.00,SE,125,18.0,24.0,83,0.00,,,-99.99,,2013-04-21 14:52:00,
2013-04-21 10:02:00,41.0,36.0,-100.00,SE,125,18.0,24.0,83,0.00,,,-99.99,,2013-04-21 15:02:00,
2013-04-21 10:11:00,42.0,38.0,-100.00,SE,135,16.0,25.0,83,0.00,,,-99.99,,2013-04-21 15:11:00,
2013-04-21 10:22:00,43.0,37.0,-100.00,SE,135,16.0,26.0,81,0.00,,,-99.99,,2013-04-21 15:22:00,
2013-04-21 10:33:00,44.0,38.0,-100.00,SE,135,21.0,27.0,79,0.00,,,-99.99,,2013-04-21 15:33:00,
2013-04-21 10:42:00,44.0,38.0,-100.00,SE,135,21.0,27.0,79,0.00,,,-99.99,,2013-04-21 15:42:00,
2013-04-21 10:53:00,45.0,39.0,-100.00,SE,140,17.0,27.0,78,0.00,,,-99.99,,2013-04-21 15:53:00,
2013-04-21 11:03:00,45.0,39.0,-100.00,SE,140,17.0,27.0,78,0.00,,,-99.99,,2013-04-21 16:03:00,
2013-04-21 11:12:00,46.0,39.0,-100.00,SE,130,22.0,27.0,76,0.00,,,-99.99,,2013-04-21 16:12:00,
2013-04-21 11:22:00,47.0,39.0,-100.00,SE,130,19.0,25.0,74,0.00,,,-99.99,,2013-04-21 16:22:00,
2013-04-21 11:33:00,48.0,40.0,-100.00,SE,140,17.0,26.0,73,0.00,,,-99.99,,2013-04-21 16:33:00,
2013-04-21 11:42:00,48.0,40.0,-100.00,SE,140,17.0,26.0,73,0.00,,,-99.99,,2013-04-21 16:42:00,
2013-04-21 11:52:00,51.0,40.0,-100.00,SE,145,19.0,27.0,68,0.00,,,-99.99,,2013-04-21 16:52:00,
2013-04-21 12:02:00,51.0,40.0,-100.00,SE,145,19.0,27.0,68,0.00,,,-99.99,,2013-04-21 17:02:00,
2013-04-21 12:12:00,51.0,41.0,-100.00,SE,145,19.0,28.0,67,0.00,,,-99.99,,2013-04-21 17:12:00,
2013-04-21 12:22:00,51.0,41.0,-100.00,SSE,155,19.0,26.0,67,0.00,,,-99.99,,2013-04-21 17:22:00,
2013-04-21 12:32:00,51.0,40.0,-100.00,SSE,150,22.0,27.0,65,0.00,,,-99.99,,2013-04-21 17:32:00,
2013-04-21 12:42:00,51.0,40.0,-100.00,SSE,150,22.0,27.0,65,0.00,,,-99.99,,2013-04-21 17:42:00,
2013-04-21 12:52:00,53.0,42.0,-100.00,SE,135,19.0,27.0,65,0.00,,,-99.99,,2013-04-21 17:52:00,
2013-04-21 13:02:00,53.0,42.0,-100.00,SE,135,19.0,27.0,65,0.00,,,-99.99,,2013-04-21 18:02:00,
2013-04-21 13:11:00,54.0,42.0,-100.00,SE,140,18.0,28.0,63,0.00,,,-99.99,,2013-04-21 18:11:00,
2013-04-21 13:22:00,56.0,42.0,-100.00,SE,145,19.0,30.0,61,0.00,,,-99.99,,2013-04-21 18:22:00,
2013-04-21 13:32:00,58.0,44.0,-100.00,SSE,155,17.0,28.0,58,0.00,,,-99.99,,2013-04-21 18:32:00,
2013-04-21 13:42:00,58.0,44.0,-100.00,SSE,155,17.0,28.0,58,0.00,,,-99.99,,2013-04-21 18:42:00,
2013-04-21 13:52:00,60.0,45.0,-100.00,SSE,150,20.0,26.0,55,0.00,,,-99.99,,2013-04-21 18:52:00,
2013-04-21 14:02:00,60.0,45.0,-100.00,SSE,150,20.0,26.0,55,0.00,,,-99.99,,2013-04-21 19:02:00,
2013-04-21 14:11:00,61.0,44.0,-100.00,SSE,155,19.0,29.0,54,0.00,,,-99.99,,2013-04-21 19:11:00,
2013-04-21 14:21:00,61.0,44.0,-100.00,SSE,150,22.0,32.0,52,0.00,,,-99.99,,2013-04-21 19:21:00,
2013-04-21 14:32:00,63.0,44.0,-100.00,SSE,155,24.0,30.0,50,0.00,,,-99.99,,2013-04-21 19:32:00,
2013-04-21 14:42:00,63.0,44.0,-100.00,SSE,155,24.0,30.0,50,0.00,,,-99.99,,2013-04-21 19:42:00,
2013-04-21 14:52:00,64.0,44.0,-100.00,SSE,160,22.0,28.0,48,0.00,,,-99.99,,2013-04-21 19:52:00,
2013-04-21 15:02:00,64.0,44.0,-100.00,SSE,160,22.0,28.0,48,0.00,,,-99.99,,2013-04-21 20:02:00,
2013-04-21 15:11:00,64.0,44.0,-100.00,SSE,155,26.0,34.0,48,0.00,,,-99.99,,2013-04-21 20:11:00,
2013-04-21 15:22:00,63.0,44.0,-100.00,SSE,165,22.0,30.0,48,0.00,,,-99.99,,2013-04-21 20:22:00,
2013-04-21 15:32:00,62.0,43.0,-100.00,SSE,160,21.0,29.0,50,0.13,,,-99.99,,2013-04-21 20:32:00,
2013-04-21 15:41:00,62.0,43.0,-100.00,SSE,160,21.0,29.0,50,0.13,,,-99.99,,2013-04-21 20:41:00,
2013-04-21 15:52:00,64.0,44.0,-100.00,South,180,21.0,26.0,48,0.00,,,-99.99,,2013-04-21 20:52:00,
2013-04-21 16:02:00,64.0,44.0,-100.00,South,180,21.0,26.0,48,0.00,,,-99.99,,2013-04-21 21:02:00,
2013-04-21 16:12:00,63.0,43.0,-100.00,South,170,23.0,30.0,48,0.00,,,-99.99,,2013-04-21 21:12:00,
2013-04-21 16:21:00,64.0,43.0,-100.00,South,175,22.0,30.0,46,0.00,,,-99.99,,2013-04-21 21:21:00,
2013-04-21 16:33:00,58.0,44.0,-100.00,South,180,23.0,40.0,59,0.00,,,-99.99,,2013-04-21 21:33:00,
2013-04-21 16:43:00,58.0,44.0,-100.00,South,180,23.0,40.0,59,0.00,,,-99.99,,2013-04-21 21:43:00,
2013-04-21 16:53:00,60.0,46.0,-100.00,SSE,160,14.0,22.0,58,0.00,,,-99.99,,2013-04-21 21:53:00,
2013-04-21 17:02:00,60.0,46.0,-100.00,SSE,160,14.0,22.0,58,0.00,,,-99.99,,2013-04-21 22:02:00,
2013-04-21 17:12:00,61.0,46.0,-100.00,South,170,12.0,17.0,57,0.00,,,-99.99,,2013-04-21 22:12:00,
2013-04-21 17:22:00,61.0,46.0,-100.00,SSE,165,12.0,16.0,57,0.00,,,-99.99,,2013-04-21 22:22:00,
2013-04-21 17:33:00,62.0,44.0,-100.00,South,175,18.0,22.0,51,0.00,,,-99.99,,2013-04-21 22:33:00,
2013-04-21 17:43:00,62.0,44.0,-100.00,South,175,18.0,22.0,51,0.00,,,-99.99,,2013-04-21 22:43:00,
2013-04-21 17:52:00,61.0,43.0,-100.00,South,185,13.0,18.0,51,0.00,,,-99.99,,2013-04-21 22:52:00,
2013-04-21 18:02:00,61.0,43.0,-100.00,South,185,13.0,18.0,51,0.00,,,-99.99,,2013-04-21 23:02:00,
2013-04-21 18:12:00,61.0,43.0,-100.00,SSW,195,16.0,24.0,50,0.00,,,-99.99,,2013-04-21 23:12:00,
2013-04-21 18:22:00,61.0,42.0,-100.00,SSW,195,17.0,27.0,48,0.00,,,-99.99,,2013-04-21 23:22:00,
2013-04-21 18:32:00,61.0,41.0,-100.00,SSW,200,15.0,21.0,48,0.00,,,-99.99,,2013-04-21 23:32:00,
2013-04-21 18:42:00,61.0,41.0,-100.00,SSW,200,15.0,21.0,48,0.00,,,-99.99,,2013-04-21 23:42:00,
2013-04-21 18:52:00,55.0,44.0,-100.00,West,280,14.0,17.0,64,0.08,,,-99.99,,2013-04-21 23:52:00,
2013-04-21 19:01:00,55.0,44.0,-100.00,West,280,14.0,17.0,64,0.08,,,-99.99,,2013-04-22 00:01:00,
2013-04-21 19:11:00,54.0,46.0,-100.00,West,265,16.0,24.0,73,0.20,,,-99.99,,2013-04-22 00:11:00,
2013-04-21 19:21:00,54.0,47.0,-100.00,SW,235,10.0,19.0,78,0.20,,,-99.99,,2013-04-22 00:21:00,
2013-04-21 19:32:00,53.0,49.0,-100.00,WSW,250,10.0,16.0,85,0.18,,,-99.99,,2013-04-22 00:32:00,
2013-04-21 19:42:00,53.0,49.0,-100.00,WSW,250,10.0,16.0,85,0.18,,,-99.99,,2013-04-22 00:42:00,
2013-04-21 19:51:00,52.0,49.0,-100.00,WSW,240,6.0,10.0,88,0.30,,,-99.99,,2013-04-22 00:51:00,
2013-04-21 20:01:00,52.0,49.0,-100.00,WSW,240,6.0,10.0,88,0.30,,,-99.99,,2013-04-22 01:01:00,
2013-04-21 20:10:00,52.0,49.0,-100.00,SSW,195,10.0,12.0,89,0.18,,,-99.99,,2013-04-22 01:10:00,
2013-04-21 20:12:00,52.0,49.0,-100.00,SW,220,7.0,10.0,89,0.16,,,-99.99,,2013-04-22 01:12:00,
2013-04-21 20:21:00,52.0,49.0,-100.00,SSW,205,9.0,11.0,89,0.18,,,-99.99,,2013-04-22 01:21:00,
2013-04-21 20:32:00,52.0,49.0,-100.00,SSW,195,10.0,12.0,89,0.18,,,-99.99,,2013-04-22 01:32:00,
2013-04-21 20:41:00,52.0,49.0,-100.00,SSW,195,10.0,12.0,89,0.18,,,-99.99,,2013-04-22 01:41:00,
2013-04-21 20:52:00,52.0,49.0,-100.00,SSW,195,10.0,12.0,89,0.18,,,-99.99,,2013-04-22 01:52:00,
2013-04-21 21:02:00,52.0,49.0,-100.00,SSW,195,10.0,12.0,89,0.18,,,-99.99,,2013-04-22 02:02:00,